Watsonville, CA

11:03 AM PST on December 06, 2019 (GMT -0800)
Watsonville Municipal

Weather History for KWVI - August, 2019

Change the Weather History Date:

Thursday, August 1, 2019

  Actual Average Record
Temperature  
Mean Temperature 64 °F 63 °F  
Max Temperature 72 °F 73 °F 83 °F (2000)
Min Temperature 55 °F 53 °F 49 °F (2008)
Degree Days  
Heating Degree Days 1    
Month to date heating degree days 1  
Since 1 June heating degree days 139  
Since 1 July heating degree days 48  
Cooling Degree Days 0    
Month to date cooling degree days 0  
Year to date cooling degree days 54  
Since 1 June cooling degree days 54  
Growing Degree Days 13 (Base 50)    
Moisture  
Dew Point 55 °F    
Average Humidity 77    
Maximum Humidity 93    
Minimum Humidity 61    
Precipitation  
Precipitation T in - 0.01 in (1953)
Month to date precipitation T  
Year to date precipitation 22.76  
Sea Level Pressure  
Sea Level Pressure 30.06 in    
Wind  
Wind Speed 3 mph (ESE)    
Max Wind Speed 10 mph    
Max Gust Speed 16 mph    
Visibility 7 miles    
Events      
T = Trace of Precipitation, MM = Missing Value Source: NWS Daily Summary

Daily Weather History Graph

Daily Weather History Graph

Search for Another Location

Airport or City:

Astronomy

Aug. 01, 2019 Rise Set
Actual Time 6:12 AM PDT 8:14 PM PDT
Civil Twilight 5:43 AM PDT 8:42 PM PDT
Nautical Twilight 5:08 AM PDT 9:17 PM PDT
Astronomical Twilight 4:31 AM PDT 9:55 PM PDT
Moon 6:43 AM PDT (8/1) 9:05 PM PDT (8/1)
Length of Visible Light 14h 58m
Length of Day
14h 01m
New Moon, 1% of the Moon is Illuminated
Aug 1
New Moon
Aug 7
First Quarter
Aug 15
Full
Aug 23
Last Quarter
Aug 30
New

Hourly Weather History & Observations

Time (PDT) Temp. Dew Point Humidity Pressure Visibility Wind Dir Wind Speed Gust Speed Precip Events Conditions
12:53 AM 55.9 °F 53.1 °F 90% 30.03 in 7.0 mi East 3.5 mph - N/A   Overcast
1:53 AM 55.0 °F 53.1 °F 93% 30.03 in 3.0 mi SSE 3.5 mph - N/A   Overcast
2:53 AM 55.0 °F 53.1 °F 93% 30.02 in 6.0 mi East 3.5 mph - N/A   Overcast
3:39 AM 55.0 °F 53.1 °F 93% 30.03 in 2.5 mi SSE 3.5 mph - N/A   Overcast
3:53 AM 55.0 °F 53.1 °F 93% 30.03 in 2.5 mi SE 3.5 mph - N/A   Overcast
4:05 AM 55.0 °F 53.1 °F 93% 30.03 in 3.0 mi ESE 3.5 mph - N/A   Overcast
4:53 AM 55.0 °F 53.1 °F 93% 30.03 in 7.0 mi Calm Calm - 0.00 in   Overcast
5:53 AM 55.0 °F 53.1 °F 93% 30.04 in 5.0 mi Calm Calm - N/A   Overcast
6:31 AM 55.0 °F 53.1 °F 93% 30.05 in 7.0 mi East 4.6 mph - N/A   Overcast
6:53 AM 55.0 °F 53.1 °F 93% 30.05 in 4.0 mi Calm Calm - N/A   Overcast
7:25 AM 55.9 °F 53.1 °F 90% 30.06 in 1.8 mi East 4.6 mph - N/A   Overcast
7:34 AM 55.9 °F 53.1 °F 90% 30.06 in 2.5 mi East 3.5 mph - N/A   Overcast
7:38 AM 55.9 °F 53.1 °F 90% 30.06 in 3.0 mi East 3.5 mph - N/A   Overcast
7:53 AM 55.9 °F 54.0 °F 93% 30.07 in 4.0 mi Calm Calm - N/A   Overcast
8:53 AM 57.9 °F 53.1 °F 84% 30.07 in 10.0 mi Calm Calm - N/A   Overcast
9:53 AM 60.1 °F 54.0 °F 80% 30.08 in 10.0 mi Calm Calm - N/A   Overcast
10:20 AM 60.1 °F 54.0 °F 80% 30.08 in - North - - N/A   Unknown
10:53 AM - - N/A% 30.09 in - North - - N/A   Unknown
11:41 AM 64.9 °F 55.0 °F 70% 30.09 in - Calm Calm - N/A   Overcast
11:53 AM 68.0 °F 55.0 °F 63% 30.09 in - North - - N/A   Overcast
12:53 PM 68.0 °F 55.9 °F 65% 30.09 in 10.0 mi North - - N/A   Mostly Cloudy
1:04 PM 69.1 °F 55.9 °F 63% 30.09 in 10.0 mi North - - N/A   Partly Cloudy
1:53 PM 70.0 °F 57.0 °F 63% 30.08 in 10.0 mi North - - N/A   Partly Cloudy
2:53 PM 70.0 °F 57.9 °F 65% 30.06 in 10.0 mi South 5.8 mph - N/A   Partly Cloudy
3:53 PM 70.0 °F 57.9 °F 65% 30.06 in 10.0 mi SSE 9.2 mph - N/A   Clear
4:53 PM 71.1 °F 57.9 °F 63% 30.04 in 10.0 mi SE 5.8 mph - N/A   Clear
5:53 PM 71.1 °F 57.9 °F 63% 30.03 in 10.0 mi South 9.2 mph - N/A   Clear
6:53 PM 69.1 °F 57.9 °F 68% 30.02 in 10.0 mi SSE 5.8 mph - N/A   Clear
7:53 PM 66.0 °F 57.0 °F 73% 30.03 in 10.0 mi SE 4.6 mph - N/A   Clear
8:53 PM 63.0 °F 57.0 °F 81% 30.04 in 10.0 mi ESE 4.6 mph - N/A   Clear
9:53 PM 61.0 °F 55.9 °F 83% 30.06 in 10.0 mi East 3.5 mph - N/A   Clear
10:53 PM 60.1 °F 55.9 °F 86% 30.06 in 10.0 mi East 3.5 mph - N/A   Clear
11:37 PM 60.1 °F 57.0 °F 90% 30.07 in 10.0 mi Calm Calm - N/A   Scattered Clouds
11:46 PM 60.1 °F 57.0 °F 90% 30.07 in 10.0 mi NE 3.5 mph - N/A   Mostly Cloudy
11:53 PM 61.0 °F 57.0 °F 87% 30.06 in 10.0 mi Calm Calm - N/A   Mostly Cloudy